"startDT [UTC]","vpos","CH4 [ppm]","stdev(CH4) [ppm]","CO2 [ppm]","stdev(CO2) [ppm]","H2O [ppm]","stdev(H2O)","p_LGR [torr]","T_LGR [C]","mt1_LGR [us]","mt2_LGR [us]","T_ECpre [C]","T_EC1 [C]","T_EC2 [C]","p_inlet [hPa]","p_in [hPa]","p_out [hPa]","T_inlet [C]","RH_inlet [%]","dwpt_inlet [C]","T_vent [C]","RH_vent [%]","dwpt_vent [C]","flow_vent [l min-1]","flow_inlet [l min-1]","dwpt_sample [C]","T_room [C]"
2012-03-07 00:00:00,0.0,1.9130,0.0009,402.78,0.44,20.6,31.0,138.15,26.95,24.59,36.29,0.04,-272.73,-272.74,-49,557,-931,20.3,2.4,-28.6,20.6,2.5,-28.1,5.73,2.51,-28.0,26.2
2012-03-07 00:01:00,0.0,1.9127,0.0009,402.83,0.33,26.5,30.4,138.15,26.95,24.59,36.29,0.04,-272.73,-272.73,-49,557,-931,20.3,2.4,-28.6,20.6,2.5,-28.0,5.73,2.33,-28.0,26.2
2012-03-07 00:02:00,0.0,1.9129,0.0009,402.91,0.34,22.0,30.8,138.15,26.95,24.59,36.29,0.04,-272.73,-272.73,-49,557,-931,20.3,2.5,-28.5,20.6,2.5,-28.0,5.73,2.42,-28.0,26.2
2012-03-07 00:03:00,0.0,1.9128,0.0010,402.86,0.32,28.9,30.9,138.15,26.95,24.59,36.29,0.04,-272.73,-272.73,-48,557,-931,20.3,2.5,-28.5,20.6,2.5,-28.0,5.73,2.43,-28.0,26.2
2012-03-07 00:04:00,0.0,1.9135,0.0009,402.88,0.37,16.5,24.9,138.15,26.95,24.59,36.30,0.04,-272.73,-272.74,-49,557,-931,20.3,2.4,-28.6,20.6,2.5,-28.1,5.73,2.32,-28.0,26.2
2012-03-07 00:05:00,0.0,1.9134,0.0008,402.86,0.33,25.1,29.6,138.15,26.95,24.59,36.29,0.04,-272.73,-272.73,-49,557,-931,20.3,2.4,-28.8,20.6,2.5,-28.3,5.73,2.51,-28.1,26.2
2012-03-07 00:06:00,0.0,1.9133,0.0010,402.89,0.42,19.6,26.2,138.15,26.95,24.59,36.29,0.04,-272.73,-272.73,-49,557,-931,20.3,2.4,-28.8,20.6,2.4,-28.3,5.73,2.28,-28.0,26.2
2012-03-07 00:07:00,0.0,1.9135,0.0011,402.94,0.41,22.6,27.9,138.15,26.95,24.59,36.29,0.04,-272.73,-272.73,-49,557,-931,20.3,2.4,-28.9,20.6,2.4,-28.4,5.73,2.51,-28.0,26.2
2012-03-07 00:08:00,0.0,1.9139,0.0009,402.90,0.36,21.1,29.2,138.15,26.95,24.59,36.29,0.04,-272.73,-272.73,-48,557,-931,20.3,2.3,-28.9,20.6,2.4,-28.4,5.73,2.31,-28.0,26.2
2012-03-07 00:09:00,0.0,1.9138,0.0010,402.89,0.38,32.1,35.4,138.15,26.95,24.59,36.29,0.04,-272.73,-272.73,-49,557,-931,20.3,2.4,-28.9,20.6,2.4,-28.5,5.73,2.44,-28.0,26.2
2012-03-07 00:10:00,0.0,1.9140,0.0010,402.92,0.43,19.1,25.3,138.15,26.95,24.59,36.29,0.04,-272.74,-272.74,-49,557,-931,20.3,2.3,-28.9,20.6,2.4,-28.5,5.73,2.41,-28.0,26.2
2012-03-07 00:11:00,0.0,1.9144,0.0011,402.83,0.45,22.1,28.6,138.15,26.95,24.59,36.30,0.04,-272.73,-272.74,-48,557,-931,20.3,2.3,-29.0,20.6,2.4,-28.5,5.73,2.33,-28.0,26.2
2012-03-07 00:12:00,0.0,1.9141,0.0011,403.02,0.33,22.7,27.9,138.15,26.95,24.59,36.29,0.04,-272.73,-272.73,-50,557,-931,20.3,2.4,-28.9,20.6,2.4,-28.4,5.73,2.50,-28.1,26.2
2012-03-07 00:13:00,0.0,1.9143,0.0011,402.97,0.40,23.3,31.4,138.15,26.95,24.59,36.29,0.04,-272.74,-272.73,-49,557,-931,20.3,2.4,-28.8,20.6,2.4,-28.4,5.73,2.27,-28.0,26.2
2012-03-07 00:14:00,0.0,1.9138,0.0011,402.94,0.39,27.7,30.9,138.15,26.95,24.59,36.29,0.04,-272.73,-272.74,-49,557,-931,20.3,2.4,-28.8,20.6,2.4,-28.4,5.73,2.51,-28.1,26.2
2012-03-07 00:15:00,0.0,1.9142,0.0010,402.94,0.38,19.6,25.7,138.15,26.94,24.59,36.29,0.04,-272.73,-272.73,-50,557,-931,20.3,2.4,-28.8,20.6,2.4,-28.4,5.73,2.31,-28.1,26.1
2012-03-07 00:16:00,0.0,1.9142,0.0009,402.90,0.40,19.4,23.5,138.15,26.95,24.59,36.29,0.04,-272.73,-272.73,-49,557,-931,20.3,2.4,-28.8,20.6,2.4,-28.3,5.73,2.45,-28.1,26.2
2012-03-07 00:17:00,0.0,1.9139,0.0010,402.94,0.34,24.5,25.6,138.15,26.95,24.59,36.29,0.04,-272.73,-272.73,-49,557,-931,20.2,2.4,-28.7,20.6,2.5,-28.2,5.73,2.39,-28.1,26.2
2012-03-07 00:18:00,0.0,1.9140,0.0010,402.96,0.41,19.8,25.2,138.15,26.95,24.59,36.29,0.04,-272.73,-272.73,-49,557,-931,20.2,2.4,-28.7,20.6,2.5,-28.2,5.73,2.35,-28.1,26.2
2012-03-07 00:19:00,0.0,1.9141,0.0010,403.07,0.41,22.2,32.1,138.15,26.95,24.59,36.28,0.04,-272.73,-272.73,-49,557,-931,20.2,2.4,-28.8,20.6,2.5,-28.2,5.73,2.50,-28.1,26.2
2012-03-07 00:20:00,0.0,1.9141,0.0010,402.94,0.31,28.4,32.8,138.15,26.95,24.59,36.29,0.04,-272.73,-272.74,-49,557,-931,20.2,2.4,-28.9,20.6,2.4,-28.3,5.73,2.29,-28.1,26.3
2012-03-07 00:21:00,0.0,1.9136,0.0011,402.98,0.34,20.4,25.8,138.15,26.95,24.59,36.29,0.04,-272.73,-272.73,-49,557,-931,20.2,2.4,-28.8,20.6,2.5,-28.2,5.73,2.52,-28.1,26.2
2012-03-07 00:22:00,0.0,1.9141,0.0011,402.93,0.46,24.1,28.9,138.15,26.95,24.59,36.29,0.04,-272.73,-272.73,-49,557,-931,20.2,2.4,-28.7,20.6,2.5,-28.2,5.73,2.30,-28.1,26.3
2012-03-07 00:23:00,0.0,1.9140,0.0009,402.97,0.32,21.6,30.5,138.15,26.95,24.59,36.29,0.04,-272.74,-272.73,-50,557,-931,20.2,2.4,-28.8,20.6,2.5,-28.3,5.73,2.46,-28.1,26.3
2012-03-07 00:24:00,0.0,1.9141,0.0009,402.96,0.38,20.6,28.0,138.15,26.95,24.59,36.29,0.04,-272.73,-272.73,-49,557,-931,20.1,2.4,-28.9,20.6,2.5,-28.3,5.73,2.38,-28.1,26.3
2012-03-07 00:25:00,0.0,1.9139,0.0009,402.99,0.37,26.4,35.0,138.15,26.94,24.59,36.28,0.04,-272.73,-272.73,-49,557,-931,20.1,2.4,-28.8,20.6,2.5,-28.3,5.73,2.36,-28.1,26.3
2012-03-07 00:26:00,0.0,1.9141,0.0011,402.85,0.37,22.5,28.6,138.15,26.94,24.59,36.30,0.04,-272.73,-272.73,-49,556,-931,20.1,2.4,-28.8,20.5,2.5,-28.3,5.73,2.49,-28.1,26.2
2012-03-07 00:27:00,0.0,1.9145,0.0010,402.92,0.43,23.0,25.4,138.15,26.94,24.59,36.29,0.04,-272.73,-272.74,-48,557,-931,20.1,2.4,-28.8,20.5,2.5,-28.3,5.73,2.28,-28.1,26.2
2012-03-07 00:28:00,0.0,1.9140,0.0011,403.06,0.38,22.9,28.3,138.15,26.94,24.59,36.28,0.04,-272.73,-272.74,-49,557,-931,20.1,2.4,-28.8,20.5,2.5,-28.3,5.73,2.52,-28.1,26.3
2012-03-07 00:29:00,0.0,1.9137,0.0009,402.87,0.39,17.2,25.1,138.16,26.94,24.59,36.28,0.04,-272.73,-272.73,-49,556,-931,20.1,2.4,-28.8,20.5,2.5,-28.3,5.73,2.31,-28.1,26.2
2012-03-07 00:30:00,0.0,1.9139,0.0009,402.89,0.41,16.7,26.3,138.15,26.94,24.59,36.29,0.04,-272.73,-272.74,-49,556,-931,20.1,2.4,-28.8,20.5,2.5,-28.2,5.73,2.45,-28.2,26.2
2012-03-07 00:31:00,0.0,1.9139,0.0012,402.91,0.33,17.8,24.6,138.15,26.94,24.59,36.29,0.04,-272.73,-272.74,-49,556,-931,20.1,2.4,-28.7,20.5,2.5,-28.2,5.73,2.40,-28.1,26.2
2012-03-07 00:32:00,0.0,1.9142,0.0011,403.01,0.42,21.6,26.4,138.15,26.94,24.59,36.28,0.04,-272.73,-272.73,-49,556,-931,20.1,2.4,-28.7,20.5,2.5,-28.2,5.73,2.35,-28.1,26.3
2012-03-07 00:33:00,0.0,1.9139,0.0010,402.90,0.47,13.9,22.9,138.15,26.94,24.59,36.29,0.04,-272.73,-272.73,-49,556,-931,20.1,2.4,-28.7,20.5,2.5,-28.2,5.73,2.50,-28.2,26.2
2012-03-07 00:34:00,0.0,1.9141,0.0010,402.96,0.36,17.9,26.7,138.16,26.94,24.59,36.28,0.04,-272.73,-272.73,-49,556,-931,20.1,2.4,-28.7,20.5,2.5,-28.2,5.73,2.28,-28.2,26.2
2012-03-07 00:35:00,0.0,1.9142,0.0010,402.95,0.41,18.9,30.8,138.15,26.94,24.59,36.29,0.04,-272.73,-272.74,-49,556,-931,20.1,2.4,-28.8,20.5,2.5,-28.2,5.73,2.51,-28.2,26.2
2012-03-07 00:36:00,0.0,1.9139,0.0010,402.92,0.43,20.6,23.6,138.15,26.94,24.59,36.29,0.04,-272.73,-272.73,-49,556,-931,20.0,2.4,-28.7,20.5,2.5,-28.2,5.73,2.32,-28.2,26.1
2012-03-07 00:37:00,0.0,1.9149,0.0009,402.96,0.42,19.4,30.1,138.15,26.94,24.59,36.29,0.04,-272.73,-272.73,-49,556,-931,20.0,2.4,-28.7,20.5,2.5,-28.3,5.73,2.43,-28.2,26.1
2012-03-07 00:38:00,0.0,1.9147,0.0012,402.97,0.35,22.8,32.2,138.16,26.94,24.59,36.29,0.04,-272.73,-272.74,-48,556,-931,20.0,2.4,-28.9,20.5,2.5,-28.3,5.73,2.44,-28.2,26.1
2012-03-07 00:39:00,0.0,1.9152,0.0011,403.05,0.41,14.0,23.3,138.15,26.93,24.59,36.28,0.04,-272.73,-272.73,-49,556,-931,20.0,2.4,-29.0,20.5,2.4,-28.4,5.73,2.31,-28.3,26.2
2012-03-07 00:40:00,0.0,1.9149,0.0010,403.09,0.39,21.1,27.8,138.16,26.93,24.59,36.28,0.04,-272.73,-272.73,-49,556,-931,20.0,2.4,-29.0,20.5,2.4,-28.4,5.73,2.52,-28.3,26.1
2012-03-07 00:41:00,0.0,1.9147,0.0011,402.90,0.38,21.7,27.7,138.15,26.93,24.59,36.29,0.04,-272.73,-272.73,-48,556,-931,20.0,2.4,-29.0,20.4,2.4,-28.5,5.73,2.29,-28.3,26.2
2012-03-07 00:42:00,0.0,1.9148,0.0010,403.13,0.39,17.6,23.2,138.15,26.93,24.59,36.28,0.04,-272.73,-272.73,-49,556,-931,20.0,2.4,-29.0,20.5,2.4,-28.4,5.73,2.46,-28.3,26.2
2012-03-07 00:43:00,0.0,1.9145,0.0010,402.98,0.34,23.4,31.0,138.16,26.93,24.59,36.29,0.04,-272.73,-272.73,-49,556,-931,20.0,2.4,-28.9,20.5,2.5,-28.3,5.73,2.41,-28.3,26.2
2012-03-07 00:44:00,0.0,1.9144,0.0012,403.01,0.32,20.9,28.5,138.15,26.93,24.59,36.28,0.04,-272.73,-272.73,-49,556,-931,20.0,2.4,-28.9,20.4,2.5,-28.4,5.73,2.33,-28.3,26.2
2012-03-07 00:45:00,0.0,1.9144,0.0011,403.05,0.42,26.1,31.2,138.15,26.93,24.59,36.28,0.04,-272.74,-272.73,-49,556,-931,20.0,2.4,-28.9,20.4,2.5,-28.3,5.73,2.51,-28.3,26.2
2012-03-07 00:46:00,0.0,1.9146,0.0010,402.97,0.38,17.9,25.5,138.15,26.93,24.59,36.29,0.04,-272.73,-272.73,-49,556,-931,20.0,2.4,-28.9,20.4,2.5,-28.3,5.73,2.28,-28.3,26.2
2012-03-07 00:47:00,0.0,1.9150,0.0010,402.96,0.37,18.4,24.7,138.16,26.93,24.59,36.28,0.04,-272.73,-272.73,-49,556,-931,20.0,2.4,-28.9,20.4,2.5,-28.4,5.73,2.50,-28.3,26.1
2012-03-07 00:48:00,0.0,1.9152,0.0011,403.13,0.39,13.2,20.7,138.16,26.93,24.59,36.28,0.04,-272.74,-272.73,-49,556,-931,20.0,2.4,-28.9,20.4,2.5,-28.4,5.73,2.36,-28.3,26.2
2012-03-07 00:49:00,0.0,1.9152,0.0010,403.07,0.39,17.4,24.1,138.15,26.93,24.59,36.28,0.04,-272.73,-272.73,-49,556,-932,20.0,2.4,-28.9,20.4,2.5,-28.4,5.73,2.37,-28.3,26.1
2012-03-07 00:50:00,0.0,1.9147,0.0010,402.98,0.38,21.9,25.1,138.16,26.93,24.59,36.28,0.04,-272.73,-272.73,-49,556,-931,20.0,2.4,-28.9,20.4,2.5,-28.4,5.73,2.49,-28.3,26.1
2012-03-07 00:51:00,0.0,1.9155,0.0011,402.96,0.34,19.2,29.2,138.16,26.92,24.59,36.28,0.04,-272.73,-272.73,-49,556,-931,20.0,2.4,-28.9,20.4,2.5,-28.4,5.73,2.29,-28.3,26.1
2012-03-07 00:52:00,0.0,1.9149,0.0012,402.98,0.44,18.9,24.2,138.16,26.92,24.59,36.29,0.04,-272.73,-272.73,-48,556,-931,20.0,2.4,-28.8,20.4,2.5,-28.3,5.73,2.52,-28.3,26.1
2012-03-07 00:53:00,0.0,1.9151,0.0012,402.93,0.39,22.7,27.9,138.16,26.92,24.59,36.28,0.04,-272.73,-272.73,-49,556,-931,20.0,2.5,-28.6,20.4,2.5,-28.1,5.73,2.33,-28.3,26.0
2012-03-07 00:54:00,0.0,1.9150,0.0011,403.06,0.34,15.9,20.4,138.15,26.92,24.59,36.28,0.04,-272.73,-272.74,-49,556,-931,20.0,2.5,-28.6,20.4,2.5,-28.0,5.73,2.40,-28.3,26.1
2012-03-07 00:55:00,0.0,1.9154,0.0010,403.04,0.34,17.2,22.0,138.16,26.92,24.59,36.28,0.04,-272.73,-272.73,-48,556,-931,20.1,2.5,-28.6,20.4,2.5,-28.1,5.73,2.47,-28.3,26.1
2012-03-07 00:56:00,0.0,1.9157,0.0011,403.08,0.34,22.5,28.4,138.15,26.92,24.59,36.28,0.04,-272.73,-272.73,-49,556,-931,20.0,2.5,-28.6,20.4,2.5,-28.1,5.73,2.29,-28.3,26.1
2012-03-07 00:57:00,0.0,1.9148,0.0011,402.98,0.37,18.9,23.5,138.15,26.92,24.59,36.28,0.04,-272.73,-272.73,-49,556,-931,20.1,2.5,-28.5,20.4,2.5,-28.1,5.73,2.52,-28.3,26.1
2012-03-07 00:58:00,0.0,1.9145,0.0009,402.94,0.41,21.5,27.2,138.16,26.92,24.59,36.28,0.04,-272.74,-272.73,-48,556,-931,20.1,2.5,-28.3,20.4,2.6,-27.8,5.73,2.33,-28.3,26.2
2012-03-07 00:59:00,0.0,1.9153,0.0011,403.03,0.43,18.9,29.1,138.16,26.92,24.59,36.28,0.04,-272.73,-272.73,-49,556,-931,20.1,2.5,-28.3,20.4,2.6,-27.7,5.73,2.39,-28.3,26.1
2012-03-07 01:00:00,0.0,1.9158,0.0012,403.10,0.35,21.4,26.7,138.16,26.92,24.59,36.28,0.04,-272.73,-272.73,-49,556,-931,20.0,2.5,-28.4,20.4,2.6,-27.9,5.73,2.49,-28.3,26.1
2012-03-07 01:01:00,0.0,1.9159,0.0009,403.01,0.45,24.9,25.0,138.15,26.92,24.59,36.28,0.04,-272.73,-272.74,-48,556,-931,20.1,2.5,-28.5,20.4,2.5,-28.0,5.73,2.28,-28.3,26.1
2012-03-07 01:02:00,0.0,1.9158,0.0011,403.20,0.35,15.5,21.5,138.16,26.92,24.59,36.27,0.04,-272.73,-272.74,-49,556,-931,20.1,2.5,-28.5,20.4,2.5,-28.0,5.73,2.50,-28.3,26.1
2012-03-07 01:03:00,0.0,1.9160,0.0012,403.13,0.41,23.2,31.4,138.16,26.92,24.58,36.28,0.04,-272.73,-272.73,-49,556,-932,20.0,2.5,-28.6,20.4,2.5,-28.0,5.73,2.37,-28.3,26.1
2012-03-07 01:04:00,0.0,1.9161,0.0009,402.96,0.37,20.7,24.8,138.16,26.92,24.59,36.28,0.04,-272.74,-272.73,-48,556,-931,20.1,2.5,-28.5,20.4,2.5,-28.0,5.73,2.35,-28.3,26.1
2012-03-07 01:05:00,0.0,1.9155,0.0013,403.10,0.41,16.4,27.9,138.16,26.92,24.59,36.28,0.04,-272.73,-272.74,-49,556,-931,20.1,2.5,-28.5,20.4,2.5,-28.0,5.73,2.51,-28.3,26.1
2012-03-07 01:06:00,0.0,1.9157,0.0011,403.04,0.35,19.1,26.1,138.15,26.92,24.59,36.28,0.04,-272.73,-272.73,-49,556,-931,20.1,2.5,-28.4,20.4,2.5,-28.0,5.73,2.29,-28.3,26.1
2012-03-07 01:07:00,0.0,1.9161,0.0009,402.99,0.34,21.6,26.1,138.16,26.92,24.59,36.28,0.04,-272.73,-272.73,-48,556,-931,20.1,2.5,-28.5,20.4,2.5,-28.0,5.73,2.46,-28.3,26.2
2012-03-07 01:08:00,0.0,1.9147,0.0010,402.87,0.38,21.7,29.1,138.15,26.92,24.59,36.29,0.04,-272.73,-272.74,-49,556,-931,20.1,2.5,-28.2,20.4,2.6,-27.7,5.73,2.43,-28.3,26.2
2012-03-07 01:09:00,0.0,1.9153,0.0011,402.91,0.41,18.4,24.6,138.16,26.92,24.59,36.29,0.04,-272.73,-272.73,-49,556,-931,20.1,2.6,-28.1,20.5,2.6,-27.6,5.73,2.30,-28.3,26.2
2012-03-07 01:10:00,0.0,1.9156,0.0012,402.99,0.46,20.8,27.5,138.15,26.92,24.59,36.28,0.04,-272.73,-272.73,-48,556,-931,20.1,2.5,-28.2,20.5,2.6,-27.6,5.73,2.52,-28.3,26.1
2012-03-07 01:11:00,0.0,1.9158,0.0011,403.12,0.45,21.2,27.5,138.16,26.92,24.59,36.28,0.04,-272.74,-272.74,-49,556,-931,20.1,2.5,-28.2,20.4,2.6,-27.7,5.73,2.33,-28.3,26.1
2012-03-07 01:12:00,0.0,1.9153,0.0013,403.06,0.38,16.6,22.7,138.15,26.92,24.59,36.28,0.04,-272.73,-272.73,-49,556,-931,20.1,2.5,-28.2,20.5,2.6,-27.7,5.73,2.39,-28.3,26.1
2012-03-07 01:13:00,0.0,1.9154,0.0013,403.01,0.40,24.8,30.9,138.15,26.92,24.59,36.28,0.04,-272.73,-272.73,-48,556,-931,20.1,2.5,-28.2,20.5,2.6,-27.7,5.73,2.50,-28.3,26.1
2012-03-07 01:14:00,0.0,1.9164,0.0010,403.06,0.34,23.4,30.7,138.15,26.92,24.59,36.29,0.04,-272.73,-272.73,-49,556,-931,20.1,2.5,-28.2,20.5,2.6,-27.7,5.73,2.28,-28.3,26.1
2012-03-07 01:15:00,0.0,1.9165,0.0011,403.12,0.34,25.3,29.5,138.15,26.92,24.59,36.28,0.04,-272.73,-272.74,-49,556,-931,20.1,2.5,-28.4,20.5,2.6,-27.9,5.73,2.49,-28.3,26.1
2012-03-07 01:16:00,0.0,1.9157,0.0012,403.05,0.43,20.5,24.0,138.15,26.92,24.59,36.28,0.04,-272.73,-272.73,-48,556,-931,20.1,2.5,-28.4,20.5,2.6,-27.9,5.73,2.39,-28.3,26.1
2012-03-07 01:17:00,0.0,1.9148,0.0010,402.96,0.48,20.6,27.8,138.16,26.92,24.59,36.28,0.04,-272.73,-272.74,-49,556,-931,20.2,2.6,-28.1,20.5,2.6,-27.6,5.73,2.32,-28.3,26.1
2012-03-07 01:18:00,0.0,1.9158,0.0012,403.14,0.37,29.1,28.2,138.15,26.92,24.59,36.28,0.04,-272.74,-272.74,-49,556,-931,20.2,2.6,-28.1,20.5,2.6,-27.6,5.73,2.52,-28.3,26.2
2012-03-07 01:19:00,0.0,1.9162,0.0012,403.08,0.45,24.3,28.2,138.15,26.92,24.58,36.28,0.04,-272.73,-272.73,-48,556,-931,20.2,2.5,-28.2,20.5,2.6,-27.8,5.73,2.31,-28.3,26.2
2012-03-07 01:20:00,0.0,1.9164,0.0010,402.98,0.43,16.3,25.1,138.15,26.92,24.58,36.28,0.04,-272.73,-272.74,-49,556,-931,20.2,2.5,-28.3,20.5,2.6,-27.9,5.73,2.41,-28.3,26.2
2012-03-07 01:21:00,0.0,1.9157,0.0013,403.11,0.38,23.7,31.3,138.15,26.92,24.59,36.28,0.04,-272.74,-272.73,-49,556,-932,20.2,2.5,-28.3,20.5,2.6,-27.8,5.73,2.47,-28.3,26.2
2012-03-07 01:22:00,0.0,1.9154,0.0010,402.99,0.41,17.7,25.6,138.15,26.92,24.59,36.29,0.04,-272.74,-272.73,-49,556,-931,20.2,2.5,-28.4,20.5,2.5,-27.9,5.73,2.29,-28.3,26.2
2012-03-07 01:23:00,0.0,1.9156,0.0012,402.96,0.41,15.2,22.4,138.15,26.92,24.59,36.29,0.04,-272.74,-272.73,-49,557,-931,20.2,2.5,-28.4,20.5,2.6,-27.9,5.73,2.51,-28.3,26.2
2012-03-07 01:24:00,0.0,1.9162,0.0010,403.07,0.35,21.4,27.6,138.15,26.92,24.59,36.28,0.04,-272.74,-272.74,-49,556,-931,20.2,2.5,-28.5,20.5,2.5,-28.0,5.73,2.33,-28.3,26.2
2012-03-07 01:25:00,0.0,1.9159,0.0008,403.12,0.38,15.7,23.0,138.15,26.92,24.59,36.29,0.04,-272.73,-272.73,-48,556,-932,20.2,2.5,-28.5,20.5,2.5,-28.0,5.73,2.40,-28.3,26.2
2012-03-07 01:26:00,0.0,1.9158,0.0011,402.97,0.40,20.3,31.5,138.16,26.92,24.59,36.29,0.04,-272.74,-272.73,-49,556,-931,20.2,2.5,-28.5,20.5,2.5,-27.9,5.73,2.47,-28.3,26.2
2012-03-07 01:27:00,0.0,1.9158,0.0009,403.08,0.38,23.4,28.0,138.15,26.92,24.59,36.29,0.04,-272.74,-272.73,-49,556,-931,20.2,2.5,-28.5,20.5,2.5,-28.0,5.73,2.29,-28.3,26.2
2012-03-07 01:28:00,0.0,1.9158,0.0011,403.06,0.38,22.8,29.5,138.15,26.92,24.59,36.29,0.04,-272.74,-272.73,-48,557,-931,20.2,2.5,-28.5,20.5,2.5,-28.1,5.73,2.52,-28.3,26.2
2012-03-07 01:29:00,0.0,1.9156,0.0009,403.22,0.40,29.4,32.1,138.15,26.92,24.59,36.28,0.04,-272.72,-272.74,-49,556,-931,20.2,2.5,-28.4,20.5,2.5,-27.9,5.73,2.33,-28.3,26.2
2012-03-07 01:30:00,0.0,1.9157,0.0009,402.97,0.44,21.3,26.5,138.15,26.92,24.59,36.29,0.04,-272.73,-272.73,-49,557,-932,20.2,2.5,-28.5,20.5,2.5,-28.0,5.73,2.40,-28.3,26.2
2012-03-07 01:31:00,0.0,1.9153,0.0009,403.01,0.40,20.7,30.7,138.15,26.92,24.59,36.28,0.04,-272.74,-272.74,-48,556,-931,20.2,2.5,-28.5,20.6,2.5,-27.9,5.73,2.47,-28.3,26.3
2012-03-07 01:32:00,0.0,1.9154,0.0010,402.98,0.40,29.6,33.5,138.15,26.93,24.59,36.29,0.04,-272.73,-272.73,-49,557,-931,20.2,2.5,-28.3,20.6,2.6,-27.8,5.73,2.29,-28.3,26.3
2012-03-07 01:33:00,0.0,1.9161,0.0009,403.05,0.41,23.0,27.3,138.15,26.93,24.59,36.29,0.04,-272.73,-272.73,-49,557,-931,20.2,2.5,-28.3,20.6,2.6,-27.8,5.73,2.52,-28.2,26.3
2012-03-07 01:34:00,0.0,1.9158,0.0009,402.96,0.41,21.4,27.3,138.15,26.93,24.59,36.29,0.04,-272.73,-272.74,-48,557,-931,20.2,2.5,-28.2,20.6,2.6,-27.8,5.73,2.31,-28.2,26.3
2012-03-07 01:35:00,0.0,1.9150,0.0011,402.99,0.41,25.7,31.6,138.15,26.93,24.59,36.29,0.04,-272.73,-272.74,-49,556,-931,20.2,2.6,-28.0,20.6,2.6,-27.5,5.73,2.42,-28.2,26.3
2012-03-07 01:36:00,0.0,1.9148,0.0011,402.91,0.40,20.3,28.0,138.15,26.93,24.59,36.29,0.04,-272.73,-272.74,-49,557,-931,20.2,2.6,-27.8,20.6,2.7,-27.3,5.73,2.45,-28.2,26.3
2012-03-07 01:37:00,0.0,1.9158,0.0008,402.97,0.41,25.2,29.3,138.15,26.93,24.59,36.29,0.04,-272.73,-272.74,-48,557,-931,20.3,2.6,-27.9,20.6,2.7,-27.4,5.73,2.30,-28.2,26.3
2012-03-07 01:38:00,0.0,1.9155,0.0011,402.99,0.41,16.5,23.1,138.15,26.93,24.59,36.29,0.04,-272.73,-272.73,-49,557,-932,20.2,2.5,-28.1,20.6,2.6,-27.5,5.73,2.52,-28.3,26.3
2012-03-07 01:39:00,0.0,1.9152,0.0009,402.97,0.41,20.6,29.2,138.15,26.94,24.59,36.28,0.04,-272.73,-272.73,-49,556,-931,20.2,2.6,-28.0,20.6,2.6,-27.5,5.73,2.30,-28.2,26.2
2012-03-07 01:40:00,0.0,1.9153,0.0013,402.97,0.38,22.9,28.9,138.15,26.94,24.59,36.29,0.04,-272.73,-272.73,-48,557,-931,20.3,2.6,-27.8,20.6,2.7,-27.3,5.73,2.45,-28.2,26.3
2012-03-07 01:41:00,0.0,1.9149,0.0011,402.89,0.41,21.6,31.9,138.15,26.94,24.59,36.29,0.04,-272.73,-272.73,-49,557,-931,20.3,2.6,-27.8,20.6,2.7,-27.3,5.73,2.41,-28.2,26.2
2012-03-07 01:42:00,0.0,1.9156,0.0010,402.94,0.40,27.2,32.8,138.15,26.94,24.59,36.29,0.04,-272.73,-272.74,-48,557,-931,20.2,2.6,-27.9,20.6,2.7,-27.3,5.73,2.33,-28.2,26.2
2012-03-07 01:43:00,0.0,1.9152,0.0011,402.99,0.47,25.0,29.9,138.15,26.94,24.59,36.29,0.25,-271.06,-272.53,-49,557,-931,20.3,2.6,-27.8,20.6,2.7,-27.4,5.42,2.57,-32.3,26.2
2012-03-07 01:44:00,0.0,1.9153,0.0010,403.02,0.41,24.5,28.6,138.15,26.95,24.59,36.29,0.04,-272.73,-272.73,-49,557,-931,20.2,2.6,-27.7,20.6,2.7,-27.2,5.73,2.29,-28.2,26.3
2012-03-07 01:45:00,0.0,1.9154,0.0011,403.02,0.37,23.1,28.1,138.15,26.95,24.59,36.29,0.04,-272.73,-272.74,-48,557,-931,20.2,2.6,-27.8,20.6,2.7,-27.3,5.73,2.49,-28.2,26.3
2012-03-07 01:46:00,0.0,1.9156,0.0011,403.01,0.39,22.3,25.8,138.15,26.95,24.59,36.29,0.04,-272.73,-272.74,-49,557,-931,20.3,2.6,-27.9,20.6,2.7,-27.4,5.73,2.36,-28.2,26.3
2012-03-07 01:47:00,0.0,1.9147,0.0011,402.91,0.39,20.5,25.9,138.15,26.95,24.59,36.29,0.04,-272.73,-272.73,-49,557,-931,20.3,2.6,-27.8,20.6,2.7,-27.3,5.73,2.37,-28.3,26.3
2012-03-07 01:48:00,0.0,1.9148,0.0011,402.89,0.38,24.5,29.1,138.15,26.95,24.59,36.30,0.04,-272.74,-272.74,-48,557,-931,20.3,2.7,-27.5,20.6,2.8,-26.9,5.73,2.48,-28.3,26.3
2012-03-07 01:49:00,0.0,1.9153,0.0010,402.97,0.38,23.4,34.3,138.15,26.95,24.59,36.29,0.04,-272.73,-272.73,-49,557,-931,20.2,2.7,-27.5,20.6,2.8,-27.0,5.73,2.28,-28.2,26.3
2012-03-07 01:50:00,0.0,1.9158,0.0011,403.05,0.33,23.0,27.3,138.15,26.96,24.59,36.29,0.04,-272.74,-272.73,-49,557,-931,20.2,2.7,-27.7,20.6,2.7,-27.1,5.73,2.51,-28.3,26.3
2012-03-07 01:51:00,0.0,1.9162,0.0009,402.99,0.40,23.6,27.9,138.15,26.96,24.59,36.29,0.04,-272.73,-272.73,-49,557,-931,20.2,2.6,-27.9,20.6,2.7,-27.3,5.73,2.33,-28.2,26.3
2012-03-07 01:52:00,0.0,1.9158,0.0010,403.03,0.41,24.9,29.9,138.15,26.96,24.59,36.29,0.04,-272.73,-272.73,-49,557,-931,20.2,2.6,-27.9,20.6,2.7,-27.4,5.73,2.42,-28.3,26.3
2012-03-07 01:53:00,0.0,1.9156,0.0011,403.07,0.39,22.3,27.9,138.15,26.96,24.59,36.29,0.04,-272.74,-272.73,-49,557,-931,20.2,2.6,-27.8,20.6,2.7,-27.3,5.73,2.45,-28.2,26.2
2012-03-07 01:54:00,0.0,1.9156,0.0011,403.06,0.37,21.1,29.3,138.15,26.96,24.59,36.29,0.04,-272.73,-272.73,-48,557,-931,20.2,2.6,-27.7,20.6,2.7,-27.2,5.73,2.30,-28.2,26.3
2012-03-07 01:55:00,0.0,1.9162,0.0009,402.99,0.38,20.7,27.6,138.15,26.96,24.59,36.29,0.04,-272.73,-272.74,-49,557,-931,20.2,2.6,-27.8,20.6,2.7,-27.2,5.73,2.52,-28.3,26.3
2012-03-07 01:56:00,0.0,1.9162,0.0010,403.11,0.46,29.0,30.2,138.15,26.96,24.59,36.29,0.04,-272.73,-272.73,-48,557,-931,20.2,2.6,-27.8,20.6,2.7,-27.3,5.73,2.29,-28.2,26.3
2012-03-07 01:57:00,0.0,1.9163,0.0010,403.19,0.45,23.2,26.0,138.15,26.96,24.59,36.28,0.04,-272.73,-272.73,-48,557,-931,20.2,2.6,-27.9,20.6,2.7,-27.4,5.73,2.48,-28.2,26.3
2012-03-07 01:58:00,0.0,1.9164,0.0011,402.97,0.39,22.7,29.9,138.15,26.96,24.59,36.29,0.04,-272.73,-272.73,-49,557,-931,20.2,2.6,-27.9,20.6,2.7,-27.3,5.73,2.39,-28.2,26.3
2012-03-07 01:59:00,0.0,1.9166,0.0010,403.07,0.37,18.8,25.3,138.15,26.96,24.59,36.29,0.04,-272.73,-272.74,-48,557,-931,20.2,2.6,-27.9,20.6,2.7,-27.3,5.73,2.35,-28.2,26.4
2012-03-07 02:00:00,0.0,1.9165,0.0012,403.12,0.34,21.2,26.3,138.15,26.96,24.59,36.29,0.04,-272.73,-272.73,-49,557,-931,20.2,2.6,-27.9,20.6,2.7,-27.4,5.73,2.50,-28.2,26.4
2012-03-07 02:01:00,0.0,1.9167,0.0011,403.01,0.40,18.6,27.0,138.15,26.96,24.59,36.29,0.04,-272.73,-272.73,-49,557,-932,20.2,2.6,-27.9,20.6,2.7,-27.4,5.73,2.28,-28.2,26.3
2012-03-07 02:02:00,0.0,1.9162,0.0011,403.08,0.36,16.4,24.7,138.15,26.96,24.59,36.29,0.04,-272.74,-272.74,-48,557,-931,20.2,2.6,-27.9,20.6,2.7,-27.4,5.73,2.50,-28.2,26.3
2012-03-07 02:03:00,0.0,1.9158,0.0011,403.05,0.38,21.6,30.6,138.15,26.97,24.59,36.29,0.04,-272.73,-272.73,-49,557,-931,20.2,2.6,-27.8,20.6,2.7,-27.3,5.73,2.35,-28.2,26.3
2012-03-07 02:04:00,0.0,1.9157,0.0011,403.09,0.43,21.7,27.7,138.15,26.97,24.59,36.29,0.04,-272.73,-272.73,-49,557,-931,20.2,2.6,-27.7,20.6,2.7,-27.2,5.73,2.40,-28.2,26.3
2012-03-07 02:05:00,0.0,1.9159,0.0010,403.03,0.41,23.7,26.7,138.15,26.97,24.59,36.29,0.04,-272.73,-272.73,-48,557,-931,20.2,2.6,-27.7,20.6,2.7,-27.2,5.73,2.47,-28.2,26.3
2012-03-07 02:06:00,0.0,1.9155,0.0011,402.93,0.41,21.5,33.9,138.15,26.97,24.59,36.29,0.04,-272.73,-272.73,-49,557,-931,20.3,2.7,-27.6,20.6,2.7,-27.1,5.73,2.29,-28.2,26.3
2012-03-07 02:07:00,0.0,1.9159,0.0009,403.09,0.41,19.3,23.8,138.15,26.97,24.59,36.29,0.04,-272.73,-272.74,-49,557,-931,20.2,2.7,-27.5,20.6,2.7,-27.1,5.73,2.52,-28.2,26.4
2012-03-07 02:08:00,0.0,1.9160,0.0008,402.97,0.37,26.0,31.5,138.15,26.98,24.59,36.30,0.04,-272.73,-272.73,-48,557,-931,20.3,2.7,-27.6,20.6,2.7,-27.1,5.73,2.31,-28.2,26.4
2012-03-07 02:09:00,0.0,1.9160,0.0012,403.03,0.43,19.3,27.2,138.15,26.98,24.59,36.29,0.04,-272.74,-272.73,-49,557,-931,20.3,2.6,-27.7,20.6,2.7,-27.1,5.73,2.45,-28.2,26.4
2012-03-07 02:10:00,0.0,1.9162,0.0009,403.06,0.37,22.3,23.4,138.15,26.98,24.59,36.29,0.04,-272.73,-272.73,-48,557,-931,20.3,2.7,-27.5,20.7,2.7,-27.1,5.73,2.42,-28.2,26.4
2012-03-07 02:11:00,0.0,1.9158,0.0012,402.95,0.44,19.8,27.6,138.15,26.98,24.59,36.30,0.04,-272.73,-272.73,-48,557,-931,20.3,2.7,-27.6,20.6,2.7,-27.1,5.73,2.32,-28.2,26.4
2012-03-07 02:12:00,0.0,1.9155,0.0010,403.01,0.40,19.9,31.6,138.15,26.98,24.59,36.29,0.04,-272.73,-272.74,-49,557,-931,20.3,2.7,-27.5,20.7,2.8,-26.9,5.73,2.51,-28.2,26.3
2012-03-07 02:13:00,0.0,1.9154,0.0011,403.07,0.35,20.3,25.8,138.15,26.98,24.59,36.29,0.04,-272.73,-272.74,-48,557,-931,20.3,2.7,-27.3,20.6,2.8,-26.8,5.73,2.29,-28.2,26.4
2012-03-07 02:14:00,0.0,1.9160,0.0013,402.95,0.36,28.5,30.0,138.15,26.98,24.59,36.29,0.04,-272.73,-272.73,-49,557,-932,20.3,2.7,-27.4,20.7,2.8,-26.8,5.73,2.46,-28.2,26.3
2012-03-07 02:15:00,0.0,1.9164,0.0011,403.09,0.35,19.6,28.7,138.15,26.99,24.59,36.29,0.04,-272.73,-272.73,-49,557,-931,20.3,2.7,-27.5,20.7,2.8,-27.0,5.73,2.40,-28.2,26.3
2012-03-07 02:16:00,0.0,1.9161,0.0010,403.04,0.40,22.5,25.2,138.15,26.99,24.59,36.29,0.04,-272.73,-272.74,-48,557,-931,20.3,2.7,-27.5,20.7,2.7,-27.0,5.73,2.33,-28.2,26.3
2012-03-07 02:17:00,0.0,1.9164,0.0013,402.97,0.36,20.8,26.9,138.15,26.99,24.59,36.30,0.04,-272.74,-272.73,-49,557,-931,20.3,2.7,-27.5,20.7,2.8,-27.0,5.73,2.52,-28.2,26.3